OPTUS 10 (40146 NORAD) Tracking and Keplerian Element Data

This shows tracking and keplerian element data for the satellite.

Feedback or suggestion? Click here.




ElementValue
Catalog40146
NameOPTUS 10
Epoch Orbit1537
Epoch Day322.40714979
Epoch Year2018
RAAN331.1144
Inclination0.0622
Eccentricity0.0004065
Argument of Perigee248.9778
Mean Anonmoly139.9116
Mean Motion1.0027155
Decay Rate-1.39E-06
L11 40146U 14054A 18322.40714979 -.00000139 00000-0 00000+0 0 9999
L22 40146 0.0622 331.1144 0004065 248.9778 139.9116 1.00271550 15371

Live tracking and technical data element details for OPTUS 10 (NORAD 40146). OPTUS 10 can be tracked NOW for your location showing map with azimuth and elevation plus other details from your city location.

Track the satellite on the map from your city or location and see movement details for azimuth, elevation, latitude, longitude, range, height, and movement on the map or in text.







IsCatalogInMostPopularTable: catalog: 40146, numindb: 118
Update: records affected: 1



GetName: 40146 OPTUS 10

Hit Count: updated at: Mon, 19 Nov 2018 13:04:28 GMT